Location: Godiavel Galaoual
(15.2485°N, 12.6604°W)
Time: 21:14:07
(UTC+00:00)

BEESAT - Pass Details

Date: 31 July 2021
Orbit: 699 x 708 km, 98.6° (Epoch: 25 September)

Event Time Altitude Azimuth Distance (km) Brightness Sun altitude
Rises 20:38:27 0° 355° (N) 3,095 ? -18.1°
Reaches altitude 10° 20:40:57 10° 344° (NNW) 2,176 ? -18.7°
Maximum altitude 20:45:00 28° 285° (WNW) 1,306 ? -19.6°
Drops below altitude 10° 20:49:03 10° 227° (SW) 2,171 ? -20.4°
Sets 20:51:34 0° 216° (SW) 3,088 ? -21.0°
